GW2822 Weather Reports


time (UTC)temp
C
wind
direction
speed
KPH
gust
KPH
rain 1hr
cm
rain 24hr
cm
rain mn
cm
humidity
%
barometer
mb
20260904172558 30 221 9.7 16.1 0.00 0.03 0.03 72 1011.3
20260904172047 30 198 4.8 17.7 0.00 0.03 0.03 72 1011.4
20260904171536 30 128 9.7 17.7 0.00 0.03 0.03 72 1011.4
20260904171025 29 170 9.7 17.7 0.00 0.03 0.03 74 1011.4
20260904170514 29 142 6.4 17.7 0.00 0.03 0.03 77 1011.4
20260904170054 28 178 9.7 17.7 0.00 0.03 0.03 77 1011.5
20260904165546 28 166 1.6 14.5 0.00 0.03 0.03 79 1011.4
20260904165036 28 211 4.8 14.5 0.00 0.03 0.03 79 1011.5
20260904164521 27 163 4.8 14.5 0.00 0.03 0.03 81 1011.5
20260904164011 27 183 8.0 14.5 0.00 0.03 0.03 83 1011.4
20260904163604 27 113 1.6 12.9 0.00 0.03 0.03 84 1011.4
20260904163053 27 164 4.8 11.3 0.00 0.03 0.03 85 1011.5
20260904162541 26 185 8.0 12.9 0.00 0.03 0.03 86 1011.4
20260904162030 26 183 6.4 16.1 0.00 0.03 0.03 87 1011.4
20260904161522 26 164 8.0 16.1 0.00 0.03 0.03 87 1011.5
20260904161008 26 170 4.8 12.9 0.00 0.03 0.03 88 1011.6
20260904160600 26 199 4.8 9.7 0.00 0.03 0.03 89 1011.7
20260904160036 26 164 4.8 9.7 0.00 0.03 0.03 90 1011.7
20260904155526 26 123 1.6 4.8 0.03 0.03 0.03 90 1011.8
20260904155014 26 116 0.0 3.2 0.03 0.03 0.03 90 1011.8
20260904154504 26 135 0.0 3.2 0.03 0.03 0.03 90 1011.9
20260904154055 26 156 0.0 3.2 0.03 0.03 0.03 91 1011.9
20260904153544 26 157 0.0 4.8 0.03 0.03 0.03 91 1011.8
20260904153034 26 157 0.0 4.8 0.03 0.03 0.03 91 1011.8
20260904152524 26 156 0.0 4.8 0.03 0.03 0.03 91 1011.8
20260904152017 26 156 0.0 4.8 0.03 0.03 0.03 91 1011.8
20260904151505 26 148 0.0 4.8 0.03 0.03 0.03 91 1011.8
20260904151053 26 103 0.0 0.0 0.03 0.03 0.03 91 1011.8
20260904150542 26 103 0.0 0.0 0.03 0.03 0.03 91 1011.8
20260904150026 26 103 0.0 8.0 0.03 0.03 0.03 90 1011.8
20260904145509 26 103 0.0 8.0 0.00 0.00 0.00 90 1011.7
20260904145104 26 161 0.0 8.0 0.00 0.00 0.00 90 1011.6
20260904144606 26 163 3.2 8.0 0.00 0.00 0.00 90 1011.6
20260904144040 26 124 1.6 9.7 0.00 0.00 0.00 89 1011.6
20260904143528 26 124 1.6 9.7 0.00 0.00 0.00 89 1011.5
20260904143017 25 173 0.0 11.3 0.00 0.00 0.00 89 1011.5
20260904142507 25 156 1.6 12.9 0.00 0.00 0.00 89 1011.5
20260904142058 25 119 4.8 12.9 0.00 0.00 0.00 89 1011.5
20260904141549 25 169 4.8 12.9 0.00 0.00 0.00 89 1011.5
20260904141036 25 153 6.4 12.9 0.00 0.00 0.00 89 1011.4
20260904140525 25 114 3.2 12.9 0.00 0.00 0.00 89 1011.4
20260904140003 25 147 6.4 12.9 0.00 0.00 0.00 89 1011.3
20260904135554 25 124 3.2 12.9 0.00 0.00 0.00 89 1011.3
20260904135044 25 115 3.2 11.3 0.00 0.00 0.00 90 1011.2
20260904134532 25 113 3.2 9.7 0.00 0.00 0.00 90 1011.2
20260904134025 25 125 4.8 11.3 0.00 0.00 0.00 90 1011.1
20260904133511 25 138 3.2 16.1 0.00 0.00 0.00 90 1011.0
20260904133110 25 156 6.4 16.1 0.00 0.00 0.00 90 1010.8
20260904132552 25 148 1.6 12.9 0.00 0.00 0.00 90 1010.8
20260904132041 25 182 6.4 12.9 0.00 0.00 0.00 91 1010.8
20260904131530 25 117 1.6 11.3 0.00 0.00 0.00 91 1010.7
20260904131018 25 161 1.6 12.9 0.00 0.00 0.00 91 1010.8
20260904130508 25 139 4.8 12.9 0.00 0.00 0.00 91 1010.8
20260904130047 25 127 4.8 16.1 0.00 0.00 0.00 91 1010.8
20260904125536 25 87 6.4 16.1 0.00 0.00 0.00 91 1010.7
20260904125025 25 167 3.2 9.7 0.00 0.00 0.00 91 1010.6
20260904124515 25 138 3.2 14.5 0.00 0.00 0.00 91 1010.5
20260904124004 25 173 4.8 14.5 0.00 0.00 0.00 91 1010.5
20260904123555 25 175 3.2 12.9 0.00 0.00 0.00 91 1010.4
20260904123044 25 138 4.8 12.9 0.00 0.00 0.00 91 1010.3
20260904122534 25 160 0.0 11.3 0.00 0.00 0.00 91 1010.2
20260904122026 25 157 0.0 14.5 0.00 0.00 0.00 91 1010.1
20260904121512 25 156 6.4 14.5 0.00 0.00 0.00 91 1010.1
20260904121001 25 156 4.8 14.5 0.00 0.00 0.00 90 1010.0
20260904120552 25 122 3.2 8.0 0.00 0.00 0.00 90 1010.0
20260904120026 25 142 0.0 8.0 0.00 0.00 0.00 90 1010.0
20260904115516 25 147 3.2 9.7 0.00 0.00 0.00 90 1009.9
20260904115005 25 121 1.6 9.7 0.00 0.00 0.00 90 1009.8
20260904114557 25 119 3.2 9.7 0.00 0.00 0.00 90 1009.7
20260904114047 25 138 1.6 8.0 0.00 0.00 0.00 90 1009.6
20260904113536 25 133 3.2 9.7 0.00 0.00 0.00 90 1009.5
20260904113026 25 150 3.2 9.7 0.00 0.00 0.00 90 1009.4
20260904112514 25 132 3.2 9.7 0.00 0.00 0.00 90 1009.4
20260904112003 25 175 3.2 9.7 0.00 0.00 0.00 90 1009.5
20260904111555 25 128 1.6 6.4 0.00 0.00 0.00 90 1009.4
20260904111044 25 128 0.0 6.4 0.00 0.00 0.00 90 1009.5
20260904110533 25 127 1.6 6.4 0.00 0.00 0.00 90 1009.4
20260904110011 25 126 0.0 6.4 0.00 0.00 0.00 90 1009.4
20260904105603 25 162 0.0 8.0 0.00 0.00 0.00 90 1009.4
20260904105051 25 133 1.6 8.0 0.00 0.00 0.00 90 1009.5
20260904104542 25 134 0.0 6.4 0.00 0.00 0.00 90 1009.5
20260904104030 25 150 1.6 6.4 0.00 0.00 0.00 90 1009.6
20260904103521 25 147 3.2 6.4 0.00 0.00 0.00 89 1009.6
20260904103009 25 148 1.6 6.4 0.00 0.00 0.00 89 1009.7
20260904102601 25 158 1.6 6.4 0.00 0.00 0.00 89 1009.6
20260904102050 25 165 0.0 6.4 0.00 0.00 0.00 89 1009.4
20260904101539 25 161 1.6 11.3 0.00 0.00 0.00 89 1009.4
20260904101028 25 141 1.6 11.3 0.00 0.00 0.00 89 1009.4
20260904100524 25 144 0.0 4.8 0.00 0.00 0.00 89 1009.3
20260904100121 25 144 0.0 4.8 0.00 0.00 0.00 89 1009.3
20260904095551 25 151 0.0 4.8 0.00 0.00 0.00 89 1009.3
20260904095037 25 155 0.0 6.4 0.00 0.00 0.00 89 1009.3
20260904094526 25 142 1.6 9.7 0.00 0.00 0.00 89 1009.2
20260904094015 25 166 4.8 11.3 0.00 0.00 0.00 88 1009.1
20260904093509 25 192 1.6 9.7 0.00 0.00 0.00 88 1009.2
20260904093103 25 173 0.0 0.0 0.00 0.00 0.00 88 1009.2
20260904092545 25 177 0.0 8.0 0.00 0.00 0.00 88 1009.2
20260904092035 25 158 1.6 8.0 0.00 0.00 0.00 88 1009.2
20260904091543 25 173 1.6 9.7 0.00 0.00 0.00 88 1009.2
20260904091013 25 143 0.0 9.7 0.00 0.00 0.00 88 1009.2
20260904090503 25 148 0.0 9.7 0.00 0.00 0.00 88 1009.2
20260904090042 25 167 3.2 8.0 0.00 0.00 0.00 88 1009.2
20260904085531 25 146 1.6 6.4 0.00 0.00 0.00 88 1009.2
20260904085024 25 169 0.0 9.7 0.00 0.00 0.00 87 1009.2
20260904084510 25 159 4.8 9.7 0.00 0.00 0.00 87 1009.2
20260904084100 25 184 1.6 8.0 0.00 0.00 0.00 87 1009.2
20260904083551 25 194 3.2 11.3 0.00 0.00 0.00 87 1009.2
20260904083040 25 155 3.2 11.3 0.00 0.00 0.00 87 1009.3
20260904082528 25 144 4.8 9.7 0.00 0.00 0.00 87 1009.3
20260904082018 25 157 3.2 9.7 0.00 0.00 0.00 87 1009.3
20260904081507 25 180 3.2 14.5 0.00 0.00 0.00 87 1009.2
20260904081059 25 192 4.8 14.5 0.00 0.00 0.00 87 1009.2
20260904080548 25 185 6.4 12.9 0.00 0.00 0.00 86 1009.3
20260904080025 25 156 4.8 12.9 0.00 0.00 0.00 86 1009.3
20260904075515 25 167 4.8 14.5 0.00 0.00 0.00 86 1009.4
20260904075004 25 157 6.4 14.5 0.00 0.00 0.00 86 1009.5
20260904074606 25 166 6.4 16.1 0.00 0.00 0.00 85 1009.5
20260904074044 25 140 6.4 16.1 0.00 0.00 0.00 85 1009.6
20260904073533 25 180 9.7 14.5 0.00 0.00 0.00 85 1009.5
20260904073023 25 186 8.0 16.1 0.00 0.00 0.00 85 1009.6
20260904072511 26 167 3.2 16.1 0.00 0.00 0.00 84 1009.5
20260904072003 26 144 6.4 19.3 0.00 0.00 0.00 84 1009.6
20260904071621 26 215 8.0 19.3 0.00 0.00 0.00 84 1009.7
20260904071041 26 183 6.4 19.3 0.00 0.00 0.00 84 1009.7
20260904070531 26 183 11.3 19.3 0.00 0.00 0.00 84 1009.8
20260904070008 26 202 8.0 14.5 0.00 0.00 0.00 84 1009.9
20260904065601 26 193 9.7 14.5 0.00 0.00 0.00 84 1009.9
20260904065051 26 207 6.4 24.1 0.00 0.00 0.00 84 1009.9
20260904064544 26 190 6.4 17.7 0.00 0.00 0.00 83 1009.9
20260904064028 26 175 8.0 16.1 0.00 0.00 0.00 83 1009.8
20260904063517 26 169 6.4 19.3 0.00 0.00 0.00 83 1009.9
20260904063015 26 139 9.7 22.5 0.00 0.00 0.00 83 1009.9
20260904062557 26 173 9.7 22.5 0.00 0.00 0.00 83 1009.9
20260904062048 26 130 8.0 17.7 0.00 0.00 0.00 82 1010.0
20260904061538 26 170 12.9 22.5 0.00 0.00 0.00 82 1010.0
20260904061027 26 155 12.9 27.4 0.00 0.00 0.00 82 1010.0
20260904060519 26 165 12.9 24.1 0.00 0.00 0.00 82 1009.9
20260904060056 26 167 12.9 24.1 0.00 0.00 0.00 81 1009.9
20260904055546 26 137 11.3 20.9 0.00 0.00 0.00 81 1010.0
20260904055035 26 152 12.9 20.9 0.00 0.00 0.00 80 1009.9
20260904054532 26 161 9.7 24.1 0.00 0.00 0.00 80 1009.8
20260904054012 26 184 9.7 24.1 0.00 0.00 0.00 79 1009.8
20260904053502 26 176 12.9 24.1 0.00 0.00 0.00 79 1009.9
20260904053102 26 166 11.3 25.7 0.00 0.00 0.00 78 1009.8
20260904052540 26 192 14.5 27.4 0.00 0.00 0.00 78 1009.7
20260904052030 26 198 12.9 20.9 0.00 0.00 0.00 77 1009.7
20260904051519 27 138 8.0 19.3 0.00 0.00 0.00 76 1009.7
20260904051007 27 107 8.0 25.7 0.00 0.00 0.00 76 1009.7
20260904050559 27 171 11.3 25.7 0.00 0.00 0.00 76 1009.6
20260904050036 27 172 11.3 24.1 0.00 0.00 0.00 76 1009.6
20260904045525 27 145 9.7 24.1 0.00 0.00 0.00 75 1009.6
20260904045015 27 145 9.7 24.1 0.00 0.00 0.00 74 1009.4
20260904044504 27 150 8.0 19.3 0.00 0.00 0.00 73 1009.4
20260904044056 27 165 8.0 17.7 0.00 0.00 0.00 72 1009.6
20260904043544 27 163 9.7 20.9 0.00 0.00 0.00 72 1009.5
20260904043034 27 150 11.3 24.1 0.00 0.00 0.00 71 1009.5
20260904042524 27 134 12.9 24.1 0.00 0.00 0.00 71 1009.5
20260904042015 27 121 11.3 20.9 0.00 0.00 0.00 70 1009.6
20260904041506 27 128 9.7 20.9 0.00 0.00 0.00 70 1009.6
20260904041053 27 140 11.3 20.9 0.00 0.00 0.00 71 1009.6
20260904040546 27 148 8.0 19.3 0.00 0.00 0.00 72 1009.7
20260904040020 27 130 8.0 19.3 0.00 0.00 0.00 73 1009.7
20260904035509 27 165 8.0 16.1 0.00 0.00 0.00 73 1009.7
20260904035100 27 142 11.3 17.7 0.00 0.00 0.00 74 1009.7
20260904034549 27 170 4.8 14.5 0.00 0.00 0.00 74 1009.6
20260904034039 27 149 6.4 14.5 0.00 0.00 0.00 74 1009.5
20260904033528 27 132 4.8 12.9 0.00 0.00 0.00 74 1009.5
20260904033017 27 111 4.8 17.7 0.00 0.00 0.00 74 1009.4
20260904032506 27 92 3.2 16.1 0.00 0.00 0.00 75 1009.1
20260904032100 27 97 3.2 11.3 0.00 0.00 0.00 75 1009.2
20260904031601 27 116 4.8 12.9 0.00 0.00 0.00 74 1009.1
20260904031037 27 140 4.8 12.9 0.00 0.00 0.00 74 1009.0
20260904030526 27 119 0.0 12.9 0.00 0.00 0.00 74 1008.9
20260904030002 27 146 1.6 12.9 0.00 0.00 0.00 74 1008.8
20260904025554 27 127 6.4 12.9 0.00 0.00 0.00 74 1008.8
20260904025044 27 129 3.2 12.9 0.00 0.00 0.00 73 1008.8
20260904024532 28 90 4.8 12.9 0.00 0.00 0.00 73 1008.8
20260904024022 28 120 3.2 11.3 0.00 0.00 0.00 73 1008.7
20260904023512 28 150 3.2 11.3 0.00 0.00 0.00 72 1008.7
20260904023000 28 133 4.8 11.3 0.00 0.00 0.00 72 1008.6
20260904022554 28 110 4.8 14.5 0.00 0.00 0.00 72 1008.5
20260904022041 28 115 4.8 12.9 0.00 0.00 0.00 71 1008.5
20260904021535 28 101 4.8 14.5 0.00 0.00 0.00 71 1008.4
20260904021018 28 118 6.4 16.1 0.00 0.00 0.00 71 1008.3
20260904020509 28 152 9.7 16.1 0.00 0.00 0.00 70 1008.3
20260904020047 28 114 4.8 16.1 0.00 0.00 0.00 70 1008.2
20260904015535 28 134 8.0 16.1 0.00 0.00 0.00 70 1008.0
20260904015026 28 148 9.7 19.3 0.00 0.00 0.00 69 1008.0
20260904014514 28 115 8.0 19.3 0.00 0.00 0.00 69 1008.0
20260904014004 28 93 8.0 17.7 0.00 0.00 0.00 68 1008.0
20260904013556 28 125 8.0 16.1 0.00 0.00 0.00 68 1007.9
20260904013044 29 101 6.4 16.1 0.00 0.00 0.00 68 1007.9
20260904012534 29 122 8.0 17.7 0.00 0.00 0.00 67 1007.8
20260904012025 29 88 9.7 19.3 0.00 0.00 0.00 67 1007.8
20260904011512 29 93 8.0 19.3 0.00 0.00 0.00 67 1007.7
20260904011002 29 121 9.7 20.9 0.00 0.00 0.00 66 1007.6
20260904010553 30 69 8.0 20.9 0.00 0.00 0.00 66 1007.4
20260904010031 30 103 6.4 16.1 0.00 0.00 0.00 65 1007.4
20260904005520 30 112 9.7 19.3 0.00 0.00 0.00 65 1007.4
20260904005009 30 120 8.0 19.3 0.00 0.00 0.00 65 1007.4
20260904004601 30 107 6.4 20.9 0.00 0.00 0.00 64 1007.5
20260904004050 30 115 9.7 20.9 0.00 0.00 0.00 64 1007.4
20260904003540 30 95 8.0 24.1 0.00 0.00 0.00 63 1007.5
20260904003030 30 84 11.3 24.1 0.00 0.00 0.00 63 1007.3
20260904002520 31 74 14.5 24.1 0.00 0.00 0.00 62 1007.3
20260904002007 31 101 12.9 22.5 0.00 0.00 0.00 61 1007.2
20260904001558 31 130 11.3 22.5 0.00 0.00 0.00 60 1007.3
20260904001047 31 132 11.3 22.5 0.00 0.00 0.00 59 1007.2
20260904000538 32 109 11.3 24.1 0.00 0.00 0.00 58 1007.1
20260904000015 32 103 11.3 24.1 0.00 0.00 0.00 57 1007.0
20260903235507 32 84 9.7 19.3 0.00 0.00 0.00 56 1007.0
20260903235056 32 107 9.7 16.1 0.00 0.00 0.00 56 1006.8
20260903234545 32 121 8.0 17.7 0.00 0.00 0.00 56 1006.8
20260903234034 32 125 9.7 24.1 0.00 0.00 0.00 55 1006.8
20260903233524 32 97 9.7 24.1 0.00 0.00 0.00 55 1006.8
20260903233013 32 88 4.8 12.9 0.00 0.00 0.00 55 1006.7
20260903232503 32 119 4.8 11.3 0.00 0.00 0.00 55 1006.7
20260903232055 32 123 3.2 17.7 0.00 0.00 0.00 55 1006.7
20260903231547 32 99 6.4 17.7 0.00 0.00 0.00 55 1006.7
20260903231033 32 106 8.0 17.7 0.00 0.00 0.00 55 1006.6
20260903230523 32 111 8.0 17.7 0.00 0.00 0.00 55 1006.6
20260903230105 32 101 8.0 22.5 0.00 0.00 0.00 55 1006.5
20260903225552 32 119 11.3 22.5 0.00 0.00 0.00 55 1006.5
20260903225042 32 119 9.7 24.1 0.00 0.00 0.00 56 1006.5
20260903224535 32 121 12.9 25.7 0.00 0.00 0.00 57 1006.6
20260903224024 32 125 12.9 25.7 0.00 0.00 0.00 54 1006.5
20260903223511 33 117 11.3 24.1 0.00 0.00 0.00 52 1006.6
20260903223102 33 88 12.9 38.6 0.00 0.00 0.00 50 1006.5
20260903222549 35 94 20.9 38.6 0.00 0.00 0.00 48 1006.5
20260903222040 36 50 12.9 30.6 0.00 0.00 0.00 41 1006.3
20260903221543 36 76 11.3 19.3 0.00 0.00 0.00 41 1006.1
20260903221020 37 122 6.4 19.3 0.00 0.00 0.00 41 1006.1
20260903220508 37 170 6.4 19.3 0.00 0.00 0.00 41 1006.1
20260903220047 37 129 8.0 17.7 0.00 0.00 0.00 40 1006.1
20260903215536 37 110 9.7 19.3 0.00 0.00 0.00 41 1006.1
20260903215027 37 133 9.7 14.5 0.00 0.00 0.00 40 1006.1
20260903214512 37 130 3.2 16.1 0.00 0.00 0.00 39 1006.1
20260903214003 37 72 6.4 16.1 0.00 0.00 0.00 39 1006.2
20260903213554 38 52 8.0 16.1 0.00 0.00 0.00 39 1006.2
20260903213043 38 115 4.8 17.7 0.00 0.00 0.00 39 1006.3
20260903212532 38 81 8.0 17.7 0.00 0.00 0.00 40 1006.4
20260903212022 37 131 8.0 20.9 0.00 0.00 0.00 40 1006.4
20260903211510 37 67 9.7 20.9 0.00 0.00 0.00 40 1006.4
20260903211102 37 75 9.7 20.9 0.00 0.00 0.00 41 1006.5
20260903210555 37 121 9.7 20.9 0.00 0.00 0.00 41 1006.5
20260903210029 38 126 8.0 19.3 0.00 0.00 0.00 41 1006.6
20260903205521 38 120 0.0 16.1 0.00 0.00 0.00 40 1006.7
20260903205007 38 128 8.0 16.1 0.00 0.00 0.00 39 1006.8
20260903204602 39 134 8.0 14.5 0.00 0.00 0.00 38 1006.8
20260903204048 38 202 0.0 12.9 0.00 0.00 0.00 38 1006.9
20260903203537 38 171 6.4 14.5 0.00 0.00 0.00 39 1007.0
20260903203039 38 201 8.0 16.1 0.00 0.00 0.00 39 1007.1
20260903202515 38 204 8.0 14.5 0.00 0.00 0.00 39 1007.1
20260903202004 37 139 3.2 19.3 0.00 0.00 0.00 40 1007.3
20260903201556 37 163 11.3 24.1 0.00 0.00 0.00 41 1007.2
20260903201045 37 67 8.0 24.1 0.00 0.00 0.00 40 1007.3
20260903200538 37 355 3.2 11.3 0.00 0.00 0.00 40 1007.4
20260903200020 37 73 1.6 16.1 0.00 0.00 0.00 40 1007.5
20260903195502 37 153 6.4 16.1 0.00 0.00 0.00 41 1007.5
20260903195052 37 151 9.7 17.7 0.00 0.00 0.00 41 1007.5
20260903194544 37 204 8.0 17.7 0.00 0.00 0.00 42 1007.6
20260903194034 37 175 6.4 14.5 0.00 0.00 0.00 42 1007.6
20260903193520 37 223 9.7 17.7 0.00 0.00 0.00 42 1007.7
20260903193009 37 137 8.0 17.7 0.00 0.00 0.00 43 1007.8
20260903192601 36 115 3.2 16.1 0.00 0.00 0.00 44 1007.8
20260903192049 36 163 9.7 19.3 0.00 0.00 0.00 45 1007.9
20260903191539 36 118 8.0 19.3 0.00 0.00 0.00 44 1008.1
20260903191028 35 149 9.7 20.9 0.00 0.00 0.00 46 1008.2
20260903190517 35 155 3.2 16.1 0.00 0.00 0.00 47 1008.3
20260903190056 35 172 8.0 16.1 0.00 0.00 0.00 46 1008.4
20260903185546 35 202 6.4 12.9 0.00 0.00 0.00 46 1008.5
20260903185036 35 230 8.0 14.5 0.00 0.00 0.00 46 1008.6
20260903184525 35 217 8.0 16.1 0.00 0.00 0.00 45 1008.7
20260903184012 35 195 11.3 17.7 0.00 0.00 0.00 45 1008.7
20260903183500 35 190 9.7 19.3 0.00 0.00 0.00 45 1008.8
20260903183052 36 195 6.4 19.3 0.00 0.00 0.00 45 1008.8
20260903182542 36 204 12.9 20.9 0.00 0.00 0.00 45 1008.9
20260903182032 36 216 11.3 17.7 0.00 0.00 0.00 46 1009.0
20260903181520 36 239 9.7 17.7 0.00 0.00 0.00 47 1009.2
20260903181009 36 152 11.3 19.3 0.00 0.00 0.00 47 1009.1
20260903180602 35 196 8.0 19.3 0.00 0.00 0.00 48 1009.3
20260903180058 35 196 8.0 20.9 0.00 0.00 0.00 47 1009.3
20260903175527 35 185 14.5 24.1 0.00 0.00 0.00 47 1009.4
20260903175017 35 221 9.7 24.1 0.00 0.00 0.00 48 1009.4
20260903174505 35 152 11.3 19.3 0.00 0.00 0.00 48 1009.4
20260903174057 35 144 11.3 19.3 0.00 0.00 0.00 49 1009.5
20260903173546 35 195 8.0 17.7 0.00 0.00 0.00 50 1009.7
20260903173035 34 185 8.0 20.9 0.00 0.00 0.00 51 1009.7